{"data":{"norad_id":61946,"intl_designator":"2024-209H","name":"STARLINK-11410 [DTC]","alt_names":[],"object_type":"PAYLOAD","status":"ACTIVE","operator":null,"country":"US","launch_date":"2024-11-14","launch_site_code":"AFWTR","launch_vehicle":null,"mission":null,"orbit_class":"UNKNOWN","rcs_meters":null,"size_class":null,"mass_kg":null,"dimensions":null,"purposes":["comms"],"wikipedia_slug":null,"has_3d_model":false,"image_url":null,"decayed_at":null,"tle_current":{"epoch":"2026-09-21T20:06:19.291392Z","epoch_age_seconds":70084,"freshness":"FRESH","line1":"1 61946U 24209H   26264.83772328  .00147864  00000+0  12038-2 0  9998","line2":"2 61946  53.1574 124.4336 0001135  48.2414 311.8701 15.69708801107520","mean_motion":15.69708801,"eccentricity":0.0001135,"inclination_deg":53.1574,"raan_deg":124.4336,"arg_perigee_deg":48.2414,"mean_anomaly_deg":311.8701,"bstar":0.0012038,"rev_number":10752,"period_min":91.736760288445,"perigee_km":358.96543357591,"apogee_km":360.49492942611,"semimajor_km":6737.867181501,"source":"CELESTRAK","updated_at":"2026-09-22T09:00:49.454978Z"}}}